User: anonymous   Login
Location: Unspecified
(0.0000°N, 0.0000°E)
Time: 00:19:38
(UTC+00:00)
Language:

GOES 7 - Orbit

View from above orbital plane
View from above orbital plane
View from above satellite
View from above satellite

Ground track
Ground track

The orbit data is extracted from the following two-line orbital elements,

1 17561U 87022A   18262.37065951 -.00000227 +00000-0 +00000-0 0  9996
2 17561 015.0820 001.0808 0005639 318.5587 095.0722 00.99894488098736
Epoch (UTC): 19 September 2018 08:53:44
Eccentricity: 0.0005639
inclination: 15.0820°
perigee height: 35868 km
apogee height: 35916 km
right ascension of ascending node: 1.0808°
argument of perigee: 318.5587°
revolutions per day: 0.99894488
mean anomaly at epoch: 95.0722°
orbit number at epoch: 9873

The dashed part of the orbit path shows where the satellite is in the earth's shadow,  

DLR